Wind_Speed
40 40 40 40 41 41 42 43 44 45 45 46 47 48 49 50 51 52 52 53 52 52 52 51 51 52 53 55 56 56 57 58 59 59 60 60 59 59 60 59 59 59 59 58 58 59 61 63 64 66 68 69 70 70 70 70 71 71 71 72 72 73 74 75 76 77 78 77 75 74 73 73 73 72 71 71 71 70 70 69 68 65 62 60 58
41 41 42 42 42 43 44 45 45 46 46 46 47 49 50 50 51 52 52 52 52 51 51 50 51 52 54 55 55 56 58 59 59 59 59 58 58 59 58 58 58 58 58 58 59 60 62 64 66 68 69 70 70 71 71 72 72 72 73 73 74 75 75 76 76 75 74 74 73 73 73 72 71 71 70 70 70 68 67 67 66 63 61 59 56
42 43 43 44 44 45 45 46 47 47 47 48 48 49 49 49 50 51 51 51 50 50 50 50 52 54 55 55 55 57 58 59 59 59 58 57 57 58 57 58 58 58 58 59 61 62 64 66 68 70 71 71 72 72 73 73 73 74 75 75 76 77 78 77 75 73 71 71 71 71 71 70 69 69 68 68 68 66 64 64 64 61 59 58 55
44 45 45 46 46 46 47 48 48 48 49 49 49 49 49 49 50 50 50 50 50 49 50 51 54 55 55 55 56 58 58 58 58 57 56 56 56 56 57 58 58 58 59 61 62 64 66 68 70 71 72 73 74 75 75 75 75 75 76 77 78 79 79 78 75 73 71 70 70 70 70 69 68 68 67 66 66 65 62 62 61 59 58 57 53
46 46 47 47 47 48 49 49 49 49 49 49 48 49 49 50 50 50 50 50 49 50 51 53 55 55 55 56 57 58 58 58 57 56 55 55 55 56 57 58 58 59 60 62 64 66 68 71 72 73 75 76 76 77 76 76 76 77 78 79 80 80 79 77 75 73 72 70 70 70 70 69 68 68 67 65 63 62 61 61 59 57 56 56 53
47 47 47 48 48 48 48 49 49 49 48 48 49 49 50 50 50 50 50 50 50 52 53 54 54 54 55 56 57 58 58 57 55 54 54 54 55 56 57 58 59 60 61 63 66 68 70 72 74 75 77 78 78 79 78 78 78 79 80 81 81 81 79 77 75 74 73 72 71 71 70 68 67 66 66 65 63 60 58 59 59 56 54 54 52
46 47 47 47 47 47 48 48 49 49 49 49 50 50 49 49 49 49 50 51 52 53 54 54 53 54 55 56 57 57 57 55 54 53 54 55 56 57 57 59 60 62 63 65 68 70 72 74 76 77 78 79 80 80 80 80 80 81 82 82 82 81 79 77 76 75 74 73 72 71 70 68 65 64 64 64 63 61 58 56 57 56 53 51 49
46 47 47 47 47 48 48 49 50 50 50 49 48 49 49 49 49 50 51 51 52 53 53 53 52 53 54 55 57 57 55 53 53 54 54 55 56 57 58 60 61 63 65 67 69 72 74 76 77 79 80 81 81 82 82 82 82 83 83 82 82 80 78 76 76 76 75 73 71 70 69 66 64 62 62 62 62 60 58 55 53 52 50 49 46
46 47 48 48 48 49 50 51 51 51 51 49 48 48 49 48 49 51 51 51 51 52 51 51 52 53 54 56 57 55 53 53 53 54 55 56 57 58 59 61 63 65 66 69 71 73 75 77 78 80 81 82 83 83 83 83 83 83 82 82 80 79 77 76 76 75 74 72 71 69 67 65 62 59 59 59 58 57 55 54 51 47 46 46 46
48 48 49 49 49 50 51 51 51 50 50 49 47 45 44 45 48 51 51 51 52 52 52 52 52 54 55 57 56 54 53 54 54 55 56 57 58 59 60 62 64 66 68 70 73 75 77 78 80 81 82 83 84 84 85 85 84 83 81 80 78 76 75 75 75 75 73 71 69 66 63 62 60 56 56 56 55 54 53 52 50 48 45 45 46
48 48 49 49 49 50 50 50 49 49 48 48 46 43 43 46 48 49 49 51 53 54 54 54 54 56 56 57 55 54 54 55 55 56 57 58 58 60 61 63 65 67 69 72 74 76 78 79 81 83 84 85 85 86 86 86 85 83 81 78 76 74 73 74 74 73 72 71 68 64 61 59 57 54 52 52 52 53 53 52 51 48 45 42 43
48 48 48 48 49 49 49 48 48 48 47 46 45 44 44 46 45 44 47 52 54 54 54 55 56 56 56 56 55 54 55 56 56 57 58 58 59 60 62 64 66 69 71 73 76 77 79 80 82 84 85 86 87 87 87 86 84 82 80 78 75 74 73 73 73 72 71 69 67 63 59 57 54 51 49 48 49 51 52 52 51 49 45 41 39
47 47 47 47 48 48 49 48 47 47 46 46 45 44 44 42 39 40 47 53 54 54 55 56 57 56 56 55 55 55 56 56 57 58 58 59 60 61 63 65 68 70 72 75 77 78 79 81 83 85 86 87 87 88 88 86 83 81 79 77 75 74 75 74 73 72 70 68 65 62 59 55 52 49 46 45 46 48 49 50 50 48 44 40 37
46 46 46 46 47 47 47 47 47 47 46 46 45 44 43 43 43 45 49 53 55 55 55 56 56 56 55 55 55 56 56 57 58 59 59 59 60 61 64 66 69 71 73 75 77 78 80 82 84 85 87 87 88 88 87 84 82 80 78 76 75 75 75 75 74 73 71 68 64 61 58 55 52 48 45 44 44 45 45 45 45 44 41 37 32
46 46 46 46 47 47 47 47 47 47 47 46 45 45 45 46 47 48 51 54 55 55 55 55 55 54 54 54 55 56 57 58 59 59 59 60 61 62 65 67 70 72 74 76 78 79 81 83 84 86 87 87 88 87 85 82 81 79 77 76 75 75 74 73 72 72 70 67 64 60 57 56 53 49 45 43 43 43 43 43 43 41 38 35 31
46 46 46 46 46 46 47 47 47 47 47 46 46 47 48 48 48 50 52 54 54 54 54 54 53 53 54 54 55 56 57 59 59 59 60 61 62 64 66 69 71 73 76 77 79 80 82 83 85 86 87 87 86 84 82 80 79 77 76 75 75 75 74 73 72 71 68 66 63 60 57 56 54 51 48 44 42 42 42 43 43 41 39 38 35
46 46 46 46 46 46 47 47 47 47 47 46 46 48 49 49 50 52 53 53 53 53 53 53 53 53 54 54 55 56 58 59 59 60 62 63 64 66 68 70 73 75 77 78 80 81 83 84 85 86 86 86 84 81 78 78 76 75 75 75 75 74 73 72 72 70 68 66 64 61 59 57 56 54 51 47 42 40 39 40 41 41 39 38 38
45 46 46 45 46 46 46 47 47 47 47 47 47 48 49 50 51 52 53 52 52 52 52 52 53 53 54 55 55 57 59 59 60 61 63 65 67 69 71 72 75 77 78 79 80 82 83 85 86 86 85 84 81 77 76 75 74 73 73 74 73 72 71 70 70 68 67 66 64 62 60 57 56 55 53 49 45 41 39 38 38 39 38 37 37
45 46 46 46 46 46 47 47 47 47 47 47 48 48 50 50 51 51 51 51 52 52 52 52 53 53 54 55 56 57 58 59 60 62 64 66 68 70 72 74 76 78 79 80 81 83 84 85 85 85 83 80 77 75 74 72 71 71 72 71 71 70 68 67 65 64 64 63 62 61 59 56 54 54 53 51 49 45 41 39 37 37 37 36 33
46 46 46 46 47 47 47 47 48 48 48 48 49 50 50 50 50 50 51 51 51 51 52 52 53 54 55 56 57 58 58 59 61 63 65 67 69 71 73 76 77 79 79 81 82 84 85 85 85 83 80 76 74 73 71 69 69 69 69 69 68 67 66 64 62 61 60 59 59 59 57 54 52 53 53 52 50 48 44 40 36 34 34 35 34
47 47 47 47 47 47 48 48 48 49 49 50 50 51 50 49 50 50 50 51 51 51 52 52 53 55 56 57 58 59 59 60 62 64 65 68 70 72 75 77 78 79 80 82 83 84 85 84 83 80 76 73 72 70 68 67 67 67 67 66 65 64 62 61 59 58 58 57 58 57 55 53 51 51 52 52 50 48 45 41 36 31 30 31 32
47 47 47 48 48 48 49 49 49 50 51 51 51 51 50 49 50 50 50 50 51 51 53 54 55 56 57 58 59 59 60 61 63 65 67 69 71 74 76 78 79 80 81 83 84 84 84 82 79 75 72 70 69 68 66 65 65 65 65 64 63 61 60 58 57 56 56 56 56 55 54 52 50 49 50 50 50 48 45 40 35 30 28 28 27
47 48 48 48 48 49 49 49 50 51 51 52 51 51 50 50 50 51 51 51 52 53 54 55 56 57 58 58 59 60 61 63 64 67 69 71 73 76 78 79 80 81 82 84 84 84 82 79 75 71 69 68 66 65 64 64 63 62 62 63 61 59 57 56 56 55 54 54 54 54 53 52 49 47 46 47 48 47 44 40 35 31 29 29 29
48 48 48 49 49 49 50 50 51 51 52 52 51 51 51 51 51 52 52 53 54 55 56 56 57 57 58 59 60 61 62 64 66 69 71 73 76 77 79 80 81 82 83 84 83 81 78 74 70 68 67 65 63 63 62 62 60 60 60 60 59 57 55 55 55 54 53 53 53 53 53 51 49 46 44 43 44 45 44 42 39 35 31 29 29
50 49 50 50 50 50 50 51 51 52 52 52 52 52 51 52 52 53 54 54 55 56 56 56 57 58 59 61 62 63 64 66 68 71 74 76 78 79 80 81 83 83 83 82 80 77 73 69 67 66 64 62 61 61 60 59 58 57 57 57 56 55 53 53 53 52 52 51 51 51 52 51 49 45 42 42 42 43 44 42 40 38 36 33 30
51 50 50 50 51 50 51 51 52 52 53 53 53 53 53 53 54 54 55 55 56 56 56 57 58 59 60 62 64 65 67 69 71 74 76 78 79 80 82 83 83 83 81 79 75 71 68 66 65 63 61 60 59 59 58 58 57 55 54 54 54 53 51 51 51 50 50 50 49 49 49 50 49 45 42 41 41 41 41 40 38 37 36 35 32
52 51 51 51 51 52 52 52 53 54 54 53 53 53 54 54 54 55 55 56 56 56 57 58 59 61 62 64 66 67 69 71 74 76 78 79 81 82 83 83 82 80 77 73 70 67 65 64 62 60 58 58 57 56 56 56 56 54 53 52 51 51 50 49 48 47 47 47 46 47 47 49 49 47 44 42 40 39 38 38 36 34 33 32 32
52 51 52 52 52 53 53 53 54 54 54 54 54 54 54 55 55 56 56 56 57 57 58 59 61 63 64 66 67 69 72 74 76 78 79 81 82 83 82 81 78 75 71 67 65 64 62 61 59 58 57 56 55 54 54 54 54 52 51 50 50 49 49 48 47 46 45 45 45 46 47 48 48 48 45 42 39 38 37 36 35 33 30 29 28
51 52 53 53 53 54 54 54 54 54 54 55 55 55 55 55 56 56 57 57 58 58 59 61 63 65 67 68 70 72 74 77 78 80 81 82 82 81 79 76 72 68 65 63 62 61 59 58 57 56 55 54 53 52 53 53 52 50 49 48 48 48 48 47 46 45 45 45 45 45 45 46 47 47 46 43 40 37 35 34 33 31 30 27 25
54 54 54 54 54 54 54 54 55 55 55 55 55 56 56 56 56 57 58 59 59 60 61 63 66 68 70 71 72 74 76 78 80 81 81 81 79 76 73 69 66 63 61 60 59 58 56 55 55 54 53 52 51 51 52 51 51 50 48 47 47 47 47 46 45 44 44 44 44 45 44 44 44 45 44 43 40 37 35 33 31 29 27 27 25
56 56 55 55 55 55 55 55 55 56 56 56 56 57 57 58 58 58 59 60 61 63 64 66 68 71 73 73 75 77 78 80 80 80 78 76 73 70 67 64 61 60 58 57 56 55 53 53 53 52 51 50 50 50 50 50 50 49 48 47 46 46 45 45 44 43 43 44 44 45 44 42 42 42 42 41 39 37 35 33 31 28 25 24 23
58 57 57 56 56 55 55 56 56 57 57 57 58 58 59 59 60 60 61 62 64 65 67 69 71 73 75 76 77 79 80 79 78 76 72 69 67 64 62 59 58 57 55 54 53 52 52 52 51 50 49 49 49 49 49 49 48 48 47 47 46 45 44 44 43 42 42 42 43 43 43 41 40 40 40 39 37 37 36 34 31 29 25 22 21
58 58 57 57 57 57 57 57 57 58 59 59 59 59 60 61 62 62 63 65 67 68 70 72 73 75 77 79 79 78 77 76 73 69 66 64 62 60 57 56 55 53 52 51 51 51 50 50 49 48 48 48 48 48 48 47 47 47 46 45 44 43 42 42 42 40 40 40 41 41 41 40 38 37 38 38 36 35 35 33 31 29 27 24 21
59 59 58 58 58 58 58 58 59 59 60 60 61 61 62 63 64 64 66 68 70 71 73 74 76 77 78 78 77 74 72 70 67 63 61 59 57 55 53 52 51 50 50 49 49 49 49 47 46 47 47 48 47 47 46 47 47 46 45 44 42 41 40 40 40 39 38 38 39 39 40 39 37 35 35 36 36 35 34 33 31 29 27 24 20
60 59 59 58 58 58 59 59 60 60 61 61 62 63 64 65 65 67 69 71 72 73 75 76 77 77 76 74 71 68 66 64 61 59 57 55 53 51 50 49 49 48 48 48 48 47 46 45 45 46 47 47 46 46 46 46 46 45 44 43 41 39 38 38 37 37 36 36 37 37 37 38 36 34 32 32 34 34 33 32 31 28 26 23 20
60 59 59 59 59 59 60 60 61 62 62 63 64 65 66 66 67 69 71 73 74 76 77 77 76 74 72 69 65 62 61 59 57 56 54 51 49 48 47 47 47 47 47 47 46 45 44 44 45 46 45 45 44 45 45 45 45 44 43 42 40 38 36 35 35 35 35 35 35 35 35 35 35 34 32 31 32 34 33 32 30 28 25 23 20
60 60 60 59 59 60 61 61 62 63 64 65 66 67 68 68 70 71 73 75 76 76 76 74 72 69 66 63 60 58 57 55 54 52 49 47 46 45 45 45 45 46 45 45 44 43 43 44 45 45 44 43 43 44 45 44 44 43 42 41 39 37 35 33 33 33 34 34 33 33 34 33 33 33 31 30 30 32 34 33 31 29 26 24 21
60 60 60 60 60 61 62 63 63 64 65 66 68 69 70 70 72 74 75 76 75 74 71 69 66 64 61 58 55 54 52 51 50 48 45 44 44 44 43 44 45 44 43 42 42 43 43 44 45 44 43 43 43 44 44 43 43 42 42 40 39 36 34 32 32 32 32 32 32 32 32 32 31 31 30 30 29 29 31 33 32 30 28 26 23
61 61 61 61 61 62 63 64 64 65 67 68 69 71 72 73 74 75 75 74 71 69 67 64 62 60 56 53 51 50 48 47 46 44 43 42 43 43 43 43 43 42 41 41 42 43 44 44 44 43 43 43 43 43 43 42 42 41 41 40 38 36 33 32 31 31 31 32 32 31 32 31 30 29 29 29 29 28 29 31 32 31 29 27 24
62 62 61 62 62 63 64 65 65 67 68 69 70 72 73 75 75 74 73 70 67 65 63 61 59 56 52 49 47 46 45 44 43 42 41 42 42 42 42 42 41 41 41 42 42 43 43 44 43 43 43 43 43 42 42 41 41 40 40 40 38 35 33 32 31 31 31 31 31 31 32 32 32 31 30 29 29 28 27 28 30 31 30 28 25
62 62 62 62 63 64 65 66 67 68 70 70 71 73 74 74 73 71 69 67 65 63 61 58 55 51 47 46 45 45 44 43 42 41 41 41 41 41 41 41 41 41 41 42 42 42 43 43 42 42 43 43 42 41 40 40 39 39 39 39 37 36 34 33 32 31 32 32 32 31 32 33 33 33 32 31 30 29 28 27 28 29 30 29 27
62 63 63 63 65 66 66 67 68 69 70 72 72 72 72 70 68 66 65 63 62 60 58 56 52 48 45 44 44 44 44 43 42 41 40 41 41 41 41 41 41 41 42 42 42 42 43 42 42 42 42 42 40 39 38 38 38 39 38 38 37 36 35 34 33 33 33 33 33 32 32 33 33 33 32 32 31 30 29 28 27 27 29 29 28
63 63 63 64 66 68 68 68 69 70 71 71 71 70 68 66 65 63 62 60 58 57 55 53 51 48 46 44 44 44 43 43 42 41 41 41 41 42 42 42 41 42 42 42 42 43 43 42 42 42 41 40 39 37 37 37 37 37 37 36 36 36 36 35 34 33 34 34 34 33 32 32 33 33 32 32 31 31 30 29 28 27 27 28 28
63 64 64 65 67 69 70 71 71 70 70 69 68 66 65 64 62 61 59 57 55 54 53 52 51 49 47 46 45 44 43 42 41 41 41 41 42 42 42 42 42 42 42 42 42 42 42 42 41 41 40 38 37 36 36 36 36 36 35 35 35 36 36 36 34 34 34 35 35 34 32 31 32 32 32 31 31 31 31 30 29 28 26 26 26
65 65 65 66 68 70 72 72 70 69 67 66 64 64 63 61 60 58 56 53 52 52 52 51 50 48 47 47 46 45 44 42 41 40 40 41 42 43 42 42 43 43 43 43 42 42 42 41 41 40 39 37 36 35 35 35 35 35 34 34 35 36 36 35 34 33 34 35 36 35 33 31 31 31 32 31 31 31 31 31 30 29 27 26 25
67 67 68 69 70 71 71 70 68 66 64 63 63 62 60 58 56 55 52 51 50 50 50 50 48 47 47 47 47 46 45 42 40 40 41 42 43 43 43 43 43 44 43 42 42 41 41 41 40 40 38 37 35 34 34 34 34 34 34 35 35 35 35 34 34 34 35 35 36 36 35 33 31 31 32 32 31 31 31 31 31 29 28 26 25
68 69 70 70 70 69 68 67 65 63 62 61 61 59 56 54 53 52 51 49 49 48 48 48 47 46 46 46 46 46 44 42 40 41 43 43 43 43 43 43 44 43 42 41 41 41 40 40 40 39 38 36 34 34 33 33 33 34 34 35 36 36 35 35 35 35 36 36 36 37 36 35 33 32 32 32 31 31 31 31 31 30 28 27 25
69 69 68 68 67 66 65 64 63 62 60 59 57 56 54 53 52 51 50 49 48 47 46 46 46 46 45 46 46 45 44 41 41 42 44 43 43 43 43 43 42 41 41 40 40 40 40 39 39 38 37 36 34 34 33 33 34 34 35 36 36 36 35 35 36 37 38 38 38 37 38 37 35 33 32 32 31 31 30 30 31 31 29 27 26
67 66 65 64 64 63 63 62 61 59 57 55 54 54 54 53 53 51 50 49 48 47 46 46 45 45 45 45 45 45 43 42 42 43 42 42 42 42 41 41 40 40 39 39 39 39 39 39 38 38 37 35 34 34 34 34 35 36 36 36 36 35 35 36 37 38 39 40 39 39 39 39 37 35 33 32 31 30 30 29 30 30 30 28 26
63 63 62 62 61 61 61 60 58 56 55 54 53 54 54 54 53 51 49 48 46 46 45 45 45 45 44 44 44 44 42 41 41 41 41 40 40 40 39 38 38 39 39 39 39 39 39 39 38 37 37 36 35 35 35 36 37 37 37 37 36 35 35 36 38 39 40 41 41 40 39 39 38 36 34 32 31 30 29 29 29 29 29 28 27
60 60 60 60 60 59 58 57 56 55 55 54 54 54 53 53 52 51 49 47 46 44 44 44 44 44 44 43 43 42 41 40 39 39 39 39 38 37 37 37 38 38 39 39 39 39 39 38 38 38 37 37 37 37 37 38 38 38 38 38 38 38 38 38 39 40 41 42 42 41 40 39 38 35 33 32 31 29 28 28 28 28 27 27 26
Wind_Direction
266 267 269 271 273 275 276 276 277 278 279 281 284 286 287 289 290 291 292 293 294 295 296 298 299 300 300 302 304 306 307 307 308 309 310 310 310 310 309 309 309 310 311 313 314 314 315 315 315 314 315 315 316 317 317 316 315 315 314 314 314 314 314 315 314 314 313 312 312 311 311 310 309 308 306 304 303 301 300 299 298 297 296 294 291
266 267 269 271 273 275 276 277 278 279 281 283 285 287 288 289 290 291 292 293 294 296 298 299 299 299 300 302 305 306 307 307 308 309 310 310 309 309 309 308 309 310 312 313 314 315 317 317 316 316 317 318 319 319 318 318 317 316 316 316 316 316 317 317 316 316 314 313 313 313 312 312 311 309 308 306 305 304 303 302 300 299 297 294 291
267 268 269 271 274 276 277 278 278 280 282 284 286 287 289 290 291 292 293 293 294 296 297 298 298 299 300 303 305 306 306 307 308 309 309 309 308 308 307 308 309 311 312 314 315 317 318 317 317 318 319 320 321 321 320 320 319 318 318 318 318 318 319 318 318 317 316 315 314 314 314 314 313 311 310 308 307 306 305 303 301 300 298 295 292
267 269 270 273 275 276 277 278 280 281 283 284 286 287 289 290 291 292 293 294 294 295 296 297 298 298 300 302 304 304 305 307 308 308 308 308 308 307 307 308 309 311 313 314 316 317 318 318 319 320 321 321 322 322 322 322 321 320 320 320 320 320 320 320 319 318 317 317 317 317 317 317 315 313 312 311 309 308 307 304 302 301 299 296 294
268 270 272 274 276 277 278 279 281 282 283 285 287 288 290 291 292 292 293 293 293 294 294 295 296 297 299 301 302 303 305 306 307 307 307 308 307 306 307 308 309 311 313 315 316 318 318 318 320 321 322 322 323 323 323 323 322 321 321 321 321 322 322 321 320 320 319 320 321 320 320 319 317 315 314 312 310 309 309 306 304 303 301 299 298
269 271 274 276 277 278 279 280 281 282 284 286 288 289 290 291 291 292 292 291 291 291 292 294 295 296 298 300 302 304 306 306 306 307 307 307 306 306 307 308 310 311 314 315 317 317 318 319 320 321 322 323 323 324 324 323 323 322 322 322 323 323 323 322 322 322 322 323 324 323 321 320 319 317 316 314 312 311 310 307 305 304 302 301 300
271 273 275 276 277 278 279 280 282 283 285 287 289 290 291 290 290 290 290 289 289 290 291 293 294 296 298 300 304 306 306 306 306 307 307 306 306 306 307 308 310 312 314 316 316 317 318 319 321 322 322 323 324 324 324 324 323 323 323 323 323 323 323 323 323 324 324 325 325 324 322 321 320 320 318 315 313 312 311 308 306 305 304 302 300
272 274 275 276 277 278 279 281 283 284 286 288 289 289 289 289 288 288 288 288 289 290 292 293 295 297 299 302 305 305 305 305 306 306 306 306 306 306 306 307 310 312 315 316 316 317 318 320 321 322 322 323 324 324 324 324 324 324 324 324 324 324 324 324 325 325 325 326 326 324 323 322 322 321 318 316 314 313 311 308 306 306 306 304 301
273 274 275 276 278 279 280 281 283 285 287 288 288 288 288 287 287 287 288 289 290 291 293 295 296 298 300 303 304 305 305 305 306 305 305 306 306 306 306 307 310 313 314 315 316 317 319 320 321 322 322 323 324 324 324 324 324 324 324 324 324 324 324 325 326 326 326 326 325 325 324 323 322 321 318 315 313 312 310 309 309 309 309 308 303
273 274 276 278 279 280 281 282 285 286 287 288 288 288 285 284 287 289 290 291 291 292 294 297 298 300 301 303 304 304 305 305 305 305 305 306 307 306 306 308 311 313 314 315 316 317 319 320 321 321 322 323 324 324 324 324 324 324 323 323 323 324 325 325 326 326 326 326 325 325 324 323 322 321 319 317 316 315 314 313 314 314 313 313 310
274 276 277 279 280 281 282 284 285 286 287 288 289 288 284 285 289 292 292 292 293 295 298 300 301 301 302 303 304 304 305 305 304 305 306 307 306 306 307 309 311 312 314 315 317 318 319 320 321 321 322 323 324 324 324 324 324 323 323 323 324 324 325 326 326 326 326 326 325 325 324 323 322 322 321 321 321 320 318 317 316 315 315 316 315
275 277 278 279 280 281 283 284 285 286 287 288 289 288 288 291 293 292 289 290 293 297 298 299 300 301 302 303 303 304 304 304 304 305 306 306 306 306 308 309 311 312 314 316 317 317 319 320 321 322 322 323 324 324 324 324 323 323 323 323 324 325 326 327 326 326 326 325 325 325 325 324 323 323 323 325 325 323 321 318 316 315 316 318 316
275 276 277 278 279 281 283 284 285 286 287 287 287 288 289 290 287 281 281 286 292 295 296 297 298 300 301 302 302 303 303 303 304 305 306 306 306 306 308 310 311 313 314 316 316 318 319 320 321 321 322 323 324 323 323 323 323 323 323 324 325 326 327 327 327 327 326 326 325 326 326 325 325 325 326 328 328 325 322 319 316 315 317 318 314
274 275 276 277 279 280 283 284 285 286 286 286 287 288 287 285 282 278 280 285 290 293 295 297 298 299 300 300 301 301 301 302 303 304 305 305 306 307 308 310 311 313 314 315 317 318 319 320 320 321 322 323 323 323 323 322 322 323 323 324 326 327 328 327 328 327 326 326 326 326 326 326 326 327 329 331 330 326 322 318 315 315 316 316 312
273 274 276 277 279 280 282 282 283 284 285 286 286 286 284 284 285 285 285 287 290 294 296 297 297 297 298 299 299 300 300 301 303 304 305 305 306 307 308 309 311 313 315 316 317 318 319 320 320 321 322 322 322 322 322 321 322 323 324 325 326 327 327 327 327 326 325 326 326 327 328 328 328 329 332 334 333 330 325 321 319 319 321 320 316
273 275 276 277 278 279 280 281 282 283 284 286 286 286 286 287 287 286 286 289 292 294 295 295 295 296 297 297 298 299 300 301 303 304 304 305 306 307 308 310 312 314 316 316 317 318 318 319 320 321 321 322 322 321 321 321 321 323 324 325 326 327 327 327 326 325 325 326 327 328 330 330 330 331 333 335 336 335 331 328 326 326 328 329 324
274 276 277 278 279 280 280 281 283 284 285 286 286 286 287 288 287 287 288 291 293 293 293 294 294 295 296 297 298 298 299 301 303 304 304 306 307 309 310 312 314 315 316 316 317 317 318 318 319 320 320 321 321 320 320 320 321 323 324 325 326 327 327 327 326 325 326 327 328 330 332 332 333 333 334 335 337 338 337 334 332 331 332 333 329
275 276 277 279 280 281 282 283 284 285 286 287 287 287 287 287 287 289 290 292 292 292 292 293 294 294 295 296 297 298 299 302 304 305 306 307 309 310 311 313 314 315 316 316 316 317 317 318 319 319 320 320 319 319 319 320 322 323 324 325 325 326 327 326 326 326 327 328 329 331 332 334 334 334 334 335 337 340 341 339 337 335 334 334 331
275 277 279 280 281 281 282 283 284 285 286 287 287 286 287 288 288 289 290 291 291 291 292 292 293 294 295 296 297 298 300 303 304 305 307 308 309 310 311 313 314 314 315 315 315 316 317 317 318 318 319 319 318 318 318 320 322 323 324 324 325 326 326 325 325 326 326 327 328 329 331 334 335 335 335 337 338 341 342 342 341 339 336 332 330
277 278 280 281 282 282 283 284 285 286 287 287 286 286 287 288 288 289 289 289 290 291 292 292 293 294 295 296 297 299 301 303 304 305 307 308 309 310 311 312 312 313 314 314 315 315 316 317 317 318 318 317 317 317 319 321 323 323 322 323 324 325 324 324 325 325 326 327 327 328 331 334 336 337 337 338 338 340 342 343 343 343 339 333 329
278 280 281 282 283 283 284 285 285 286 286 286 286 286 287 288 288 288 288 289 290 291 292 292 293 294 294 296 298 299 301 303 304 306 307 307 308 309 310 311 312 312 313 313 314 314 315 316 316 317 316 316 316 317 319 321 322 321 322 323 323 323 323 324 324 325 326 327 328 328 331 334 338 339 339 338 339 340 341 341 342 345 343 336 331
279 281 282 283 284 284 284 285 286 286 287 287 287 287 288 288 288 288 289 289 290 291 292 292 293 294 295 296 298 300 302 303 305 306 306 307 308 309 310 310 311 312 312 313 313 314 314 315 315 315 315 315 315 317 319 321 321 321 321 322 322 323 323 324 325 326 327 328 328 329 331 335 339 341 340 339 339 339 339 340 341 346 348 342 336
280 281 282 283 283 283 284 285 286 286 287 287 288 288 288 288 288 288 289 289 290 291 292 293 294 295 296 297 299 300 302 304 305 306 306 307 308 308 309 309 310 311 312 312 312 313 313 314 314 313 313 314 315 317 319 320 320 321 322 322 322 323 324 324 325 327 328 328 328 329 332 335 338 341 342 341 339 338 339 342 344 348 352 352 346
280 281 281 281 281 282 283 284 285 286 286 287 288 288 288 287 288 288 289 290 291 292 294 295 295 296 297 298 299 301 303 304 305 305 306 307 307 308 308 309 310 311 311 311 311 312 312 312 312 312 312 313 315 318 318 318 319 321 322 321 321 323 324 325 326 327 327 328 329 330 332 334 337 341 343 342 341 340 342 344 347 348 351 357 356
279 280 280 280 281 282 283 284 285 285 286 286 286 287 287 287 288 289 289 291 293 294 296 296 296 297 298 299 301 302 304 304 305 305 305 306 307 307 308 309 309 310 310 310 310 311 311 310 310 311 312 313 316 317 316 317 319 321 321 320 321 323 325 326 327 327 327 328 329 331 332 333 335 340 344 345 345 345 345 345 348 349 350 354 358
278 278 278 279 280 281 282 283 284 284 285 285 286 286 286 287 288 289 291 293 294 296 297 297 297 298 299 300 301 303 304 304 304 305 305 306 306 307 308 308 309 309 309 309 309 309 309 309 309 310 312 314 316 316 316 317 319 320 320 321 322 323 325 326 326 326 326 328 330 331 331 332 335 339 345 348 348 348 347 346 348 351 351 351 355
277 277 278 279 280 281 282 283 284 284 285 285 286 286 287 288 289 291 292 294 295 296 297 298 298 299 300 301 302 303 304 304 304 304 304 305 306 306 307 307 307 307 307 307 307 307 307 308 308 310 312 314 315 315 316 318 319 320 321 322 322 324 325 325 325 325 326 327 330 332 332 333 335 339 344 349 350 350 350 348 347 351 353 353 353
277 277 278 279 279 280 281 282 284 285 285 286 286 287 288 289 290 292 293 295 296 297 297 298 298 299 300 301 302 303 303 303 303 303 304 305 305 306 306 306 306 306 306 306 305 306 307 307 308 310 312 313 314 315 317 318 318 320 321 322 323 324 325 324 324 325 327 329 332 334 334 335 337 339 342 346 350 351 352 351 348 349 354 356 357
278 278 278 279 279 280 281 283 284 285 285 286 287 288 289 290 291 292 294 295 296 297 298 298 299 300 301 301 302 303 302 302 302 303 303 304 304 305 305 305 305 305 304 304 305 305 306 307 308 310 311 312 314 316 317 317 318 319 321 322 323 324 324 324 325 327 330 332 333 335 336 337 337 339 341 344 348 352 353 353 351 350 352 355 360
278 278 279 279 279 280 282 283 284 285 286 286 287 288 289 290 291 293 294 295 297 297 298 299 300 300 300 301 302 302 301 301 302 302 303 303 303 303 303 304 304 303 303 303 304 305 306 307 308 309 311 312 315 317 317 317 318 320 321 323 324 324 324 324 326 329 332 333 334 335 336 338 338 338 340 343 346 350 352 354 353 353 353 355 357
278 278 279 279 280 281 282 284 284 285 286 286 287 289 290 290 291 293 295 296 297 298 298 299 300 300 300 301 301 301 301 301 301 301 302 303 302 302 302 303 302 302 302 303 304 305 306 307 307 309 311 314 316 317 317 317 319 321 322 323 324 325 325 325 328 331 334 334 334 334 336 338 339 338 339 342 345 349 351 354 354 354 355 356 356
278 279 280 280 281 281 282 283 284 285 286 286 287 288 289 290 291 293 295 295 296 297 299 299 299 300 300 301 301 301 301 301 301 301 302 301 301 301 302 302 301 301 302 303 303 304 305 306 307 309 312 315 317 317 317 318 320 321 322 323 324 325 325 326 329 333 334 334 333 333 334 336 338 338 339 342 346 349 351 353 354 354 355 357 358
278 279 279 280 281 281 282 283 284 285 286 286 287 288 289 290 291 293 294 295 296 298 299 299 299 299 300 300 300 300 300 300 300 301 300 300 300 300 301 301 301 301 302 302 303 303 304 305 308 311 314 316 317 316 317 319 320 321 321 322 323 324 326 327 329 332 333 333 332 332 332 334 338 340 340 341 345 350 351 351 353 354 355 357 359
277 278 279 280 281 282 283 283 284 285 286 287 288 289 290 291 292 293 294 296 297 298 298 299 299 300 299 299 300 300 299 299 299 299 298 298 299 300 300 300 300 301 301 301 302 302 304 306 310 313 315 316 316 316 318 320 320 320 320 321 322 324 326 327 328 331 332 331 331 331 332 333 337 341 341 341 343 348 351 352 353 355 355 355 356
277 278 279 280 281 281 282 283 284 285 286 287 288 289 290 291 293 294 295 296 297 298 299 299 299 299 299 299 299 299 299 298 298 297 297 298 299 299 299 299 300 300 300 300 300 302 305 308 311 313 315 315 315 317 319 319 319 318 318 319 322 324 325 326 328 329 330 331 331 331 332 332 335 339 342 342 341 344 349 352 352 354 355 354 353
277 278 279 280 281 281 282 283 284 285 286 287 288 289 291 292 294 295 295 296 297 298 299 299 298 298 298 298 298 298 297 297 296 296 297 298 298 298 298 299 299 298 298 299 301 303 307 310 312 313 313 313 315 317 319 318 317 317 317 319 321 324 325 326 327 329 330 331 331 332 332 332 334 337 341 343 342 341 345 349 351 352 355 356 354
278 279 280 280 281 281 282 283 284 286 287 288 289 290 292 293 294 295 295 296 297 298 298 297 297 297 297 298 298 297 296 295 295 295 296 296 296 297 297 298 297 297 298 299 302 305 308 311 312 312 312 313 316 318 318 317 316 315 316 318 320 323 325 326 327 329 330 330 331 332 332 332 333 336 339 341 342 341 341 344 349 351 353 355 356
278 279 280 280 281 281 282 283 285 286 287 289 290 291 292 293 294 295 295 296 297 297 296 296 296 296 296 297 296 295 295 294 294 295 295 295 295 296 297 297 296 296 298 300 303 307 310 311 312 312 313 315 317 317 316 315 314 314 315 317 319 322 324 325 327 330 330 329 330 331 331 332 333 335 337 338 340 340 339 339 343 347 350 353 355
278 278 279 280 281 282 282 284 285 286 287 288 290 291 292 293 294 295 295 296 296 296 295 295 295 295 295 296 295 295 294 294 294 294 295 295 296 296 296 295 295 297 299 302 306 308 310 311 311 312 313 315 316 316 315 313 313 313 314 315 317 320 323 325 327 329 328 327 328 330 332 333 334 336 336 336 337 338 338 337 338 341 346 349 352
278 279 280 280 281 282 283 284 285 286 287 289 290 292 293 294 294 295 295 295 294 294 293 293 293 294 295 295 295 296 296 296 296 297 297 296 295 295 294 294 296 298 301 304 307 308 309 310 311 312 313 315 315 314 312 311 311 311 312 314 316 319 322 324 326 327 326 326 327 330 333 334 335 335 335 333 333 334 336 335 335 335 339 343 346
278 279 279 280 280 281 282 283 285 286 288 290 291 292 293 294 294 294 294 294 294 294 293 292 293 293 294 295 296 296 296 296 297 297 296 294 293 293 293 295 297 300 302 305 307 308 309 310 310 312 312 313 312 311 310 309 309 310 311 313 315 317 320 323 325 325 324 325 327 331 333 333 333 333 332 331 330 330 331 333 333 332 332 336 340
277 278 279 280 281 282 283 284 286 288 289 291 292 293 293 293 293 293 293 293 293 293 293 293 293 293 294 295 295 294 294 293 294 293 293 292 292 293 294 296 298 301 303 305 307 308 308 309 310 310 310 310 309 308 308 307 308 309 310 312 314 316 319 321 323 323 323 324 327 331 333 331 330 329 329 327 326 326 327 328 330 330 329 330 334
278 280 281 282 283 284 285 287 288 290 291 292 292 292 292 292 292 292 292 291 291 291 292 292 293 293 293 292 291 290 290 289 290 290 290 291 292 293 294 297 299 302 303 305 307 307 307 307 308 308 307 307 307 306 305 306 307 308 310 311 313 314 316 319 321 322 322 322 325 328 330 329 326 325 324 324 323 322 322 323 325 327 327 326 327
280 281 283 284 285 287 288 289 291 292 292 292 292 291 292 292 291 291 290 290 290 290 290 291 291 292 292 291 290 289 288 288 288 288 289 290 291 293 295 298 300 302 303 305 305 305 305 305 305 305 305 305 304 304 304 305 306 307 308 310 311 312 314 317 319 320 319 319 320 323 325 326 323 321 320 320 320 319 319 319 321 322 323 323 323
282 283 284 285 286 288 289 290 291 291 291 291 290 290 290 290 290 289 288 289 289 290 290 289 290 290 290 290 289 288 288 288 289 289 290 291 292 294 296 299 300 302 303 303 303 302 302 302 303 303 303 302 302 302 303 303 305 306 307 307 308 309 311 314 317 317 315 314 315 318 321 322 321 319 317 317 316 316 316 316 317 318 319 319 319
283 285 286 286 287 287 288 289 289 290 290 289 289 289 289 288 287 287 287 288 289 288 288 288 288 288 288 287 286 286 287 288 290 290 290 291 292 294 296 298 299 300 300 300 299 299 300 300 301 301 301 301 300 301 301 302 303 304 305 305 306 308 310 313 314 313 311 311 312 315 317 318 318 316 314 313 314 313 313 313 313 314 315 315 315
284 285 286 286 287 287 288 288 289 289 289 289 289 288 288 287 286 287 288 288 287 287 286 286 286 285 284 284 284 284 286 288 289 289 288 289 291 294 295 296 296 296 296 296 297 297 298 299 299 299 299 299 299 299 300 301 302 303 303 303 305 308 311 312 311 309 309 309 311 313 314 315 315 314 312 311 311 310 310 310 310 310 311 311 311
284 284 285 285 286 287 287 288 289 289 289 289 289 288 288 287 288 288 289 288 287 286 285 285 284 283 282 282 282 283 285 287 286 286 287 289 290 292 292 292 292 293 293 294 295 296 297 297 297 297 297 298 299 299 300 301 301 301 302 303 306 309 311 310 308 307 307 308 309 310 310 311 312 312 311 310 309 308 307 307 307 306 307 308 308
283 284 284 285 285 286 287 288 289 289 289 289 288 288 289 288 288 288 288 287 287 286 285 284 283 282 282 281 282 283 284 285 284 284 286 287 287 287 288 288 289 290 291 292 294 295 295 295 295 296 296 298 299 300 300 301 301 301 303 305 307 309 308 307 305 305 305 305 306 307 307 308 309 310 310 309 307 306 305 305 304 303 303 304 305
283 283 284 285 286 287 288 289 290 289 289 289 289 289 289 288 288 287 287 286 285 285 284 284 283 282 281 281 281 282 283 283 283 283 283 283 284 284 285 286 287 289 290 291 293 294 294 294 294 295 297 298 300 300 300 301 301 303 304 306 306 306 305 304 303 302 302 303 304 305 305 306 307 308 308 308 306 305 304 303 301 300 300 302 303
282 283 285 286 288 289 289 290 290 290 290 290 290 289 288 287 287 286 285 284 284 283 283 283 282 281 280 280 280 281 281 281 280 280 280 281 282 283 284 285 286 288 290 291 292 292 293 293 294 295 297 298 299 300 300 301 302 304 304 304 304 304 303 302 301 301 301 301 302 303 304 305 306 306 307 307 306 305 304 302 300 299 299 300 301
Height
10680 10680 10680 10680 10680 10680 10680 10680 10679 10679 10679 10678 10677 10676 10674 10672 10670 10668 10666 10664 10662 10660 10657 10655 10652 10649 10647 10644 10641 10639 10636 10633 10631 10628 10624 10620 10617 10613 10609 10605 10602 10599 10596 10592 10589 10585 10580 10575 10570 10564 10559 10554 10549 10543 10538 10532 10526 10521 10515 10510 10505 10500 10493 10486 10480 10471 10461 10453 10447 10442 10436 10431 10425 10419 10413 10405 10397 10391 10386 10381 10377 10375 10374 10372 10370
10675 10675 10676 10676 10676 10676 10676 10675 10675 10675 10674 10674 10673 10671 10669 10667 10665 10663 10660 10658 10656 10654 10652 10649 10646 10644 10641 10638 10636 10633 10630 10628 10625 10622 10618 10615 10611 10607 10603 10600 10596 10593 10590 10586 10582 10578 10574 10568 10563 10557 10552 10547 10541 10536 10529 10523 10518 10512 10506 10500 10494 10489 10484 10477 10471 10464 10455 10446 10439 10432 10426 10421 10415 10408 10401 10394 10386 10380 10376 10370 10365 10364 10361 10358 10358
10671 10671 10671 10671 10672 10672 10671 10671 10670 10670 10670 10669 10667 10665 10664 10662 10660 10657 10655 10653 10651 10649 10646 10643 10641 10638 10635 10633 10630 10628 10625 10622 10619 10616 10613 10609 10605 10602 10598 10594 10591 10587 10584 10580 10576 10572 10567 10561 10556 10550 10545 10539 10533 10528 10522 10515 10509 10503 10497 10491 10485 10479 10473 10467 10461 10455 10448 10440 10432 10424 10418 10412 10405 10397 10391 10383 10375 10370 10367 10361 10356 10353 10350 10345 10346
10666 10666 10666 10667 10667 10667 10666 10666 10665 10665 10665 10664 10662 10660 10659 10657 10654 10652 10650 10648 10646 10643 10640 10638 10635 10633 10630 10628 10625 10623 10620 10617 10614 10611 10607 10604 10600 10596 10592 10588 10585 10581 10578 10573 10569 10565 10560 10554 10549 10543 10537 10532 10526 10520 10514 10507 10500 10494 10488 10482 10476 10470 10463 10456 10450 10444 10438 10432 10423 10415 10409 10403 10395 10387 10381 10374 10366 10360 10357 10352 10347 10344 10340 10335 10336
10661 10662 10662 10662 10662 10661 10661 10660 10660 10660 10659 10658 10657 10655 10654 10651 10649 10647 10645 10643 10640 10637 10635 10632 10630 10627 10625 10623 10620 10617 10614 10611 10608 10605 10602 10599 10595 10591 10586 10583 10579 10575 10572 10567 10562 10558 10553 10547 10542 10536 10530 10524 10518 10512 10506 10500 10493 10486 10480 10474 10467 10460 10454 10446 10439 10433 10427 10421 10414 10406 10398 10393 10386 10377 10370 10365 10359 10353 10348 10341 10338 10336 10332 10326 10326
10656 10656 10657 10657 10657 10656 10655 10655 10654 10654 10653 10653 10652 10650 10648 10646 10644 10642 10639 10637 10634 10631 10629 10627 10625 10622 10620 10617 10615 10612 10608 10605 10602 10599 10596 10593 10589 10585 10581 10577 10573 10569 10566 10561 10556 10551 10546 10541 10535 10529 10523 10516 10510 10504 10498 10492 10486 10479 10472 10465 10458 10451 10444 10437 10430 10423 10416 10411 10405 10398 10390 10385 10379 10370 10361 10355 10350 10347 10343 10335 10328 10327 10325 10321 10318
10651 10651 10651 10652 10651 10651 10650 10649 10648 10648 10648 10647 10646 10645 10643 10640 10638 10636 10634 10631 10629 10626 10624 10622 10620 10617 10614 10611 10609 10605 10602 10599 10596 10594 10590 10587 10583 10579 10575 10572 10567 10563 10559 10555 10550 10544 10539 10534 10528 10522 10516 10509 10502 10496 10490 10484 10478 10471 10464 10457 10450 10443 10436 10429 10421 10414 10408 10402 10396 10390 10383 10377 10372 10364 10355 10347 10341 10337 10334 10330 10323 10318 10316 10314 10311
10646 10646 10646 10646 10646 10645 10644 10643 10643 10642 10642 10642 10642 10639 10636 10634 10632 10629 10627 10626 10623 10621 10619 10617 10614 10611 10608 10606 10603 10600 10597 10594 10591 10588 10584 10581 10578 10573 10570 10566 10562 10557 10553 10548 10543 10538 10532 10527 10521 10515 10509 10502 10496 10489 10482 10475 10469 10463 10456 10450 10443 10435 10428 10422 10415 10407 10401 10395 10390 10383 10376 10370 10365 10358 10349 10342 10336 10330 10325 10321 10317 10313 10309 10305 10303
10641 10641 10640 10640 10640 10639 10638 10638 10637 10636 10636 10637 10636 10634 10631 10628 10625 10623 10622 10620 10618 10616 10614 10612 10609 10606 10603 10600 10597 10594 10591 10588 10585 10581 10578 10575 10572 10568 10563 10560 10556 10551 10547 10542 10537 10531 10526 10520 10514 10508 10502 10495 10488 10482 10476 10469 10463 10456 10450 10444 10437 10429 10422 10415 10408 10401 10395 10389 10384 10378 10370 10364 10360 10355 10346 10337 10331 10326 10319 10313 10310 10307 10303 10296 10293
10636 10636 10635 10634 10634 10633 10632 10632 10632 10631 10630 10630 10630 10629 10625 10622 10619 10617 10615 10613 10611 10609 10608 10606 10603 10600 10597 10594 10591 10588 10585 10582 10579 10576 10573 10570 10566 10561 10557 10553 10550 10545 10540 10535 10530 10524 10519 10513 10507 10501 10494 10488 10481 10474 10468 10462 10456 10451 10445 10439 10432 10425 10418 10409 10402 10396 10389 10383 10378 10373 10367 10360 10355 10350 10343 10333 10326 10319 10313 10307 10303 10300 10297 10292 10286
10630 10630 10630 10629 10628 10627 10626 10626 10626 10625 10624 10624 10624 10622 10619 10615 10613 10611 10608 10606 10604 10602 10601 10599 10596 10594 10591 10588 10585 10582 10579 10576 10573 10570 10567 10564 10560 10555 10551 10548 10544 10539 10534 10529 10523 10518 10512 10506 10500 10493 10487 10480 10473 10467 10460 10454 10448 10442 10437 10431 10426 10420 10413 10406 10398 10391 10384 10377 10371 10367 10362 10356 10350 10345 10338 10329 10321 10313 10306 10301 10296 10293 10291 10289 10284
10625 10625 10624 10623 10622 10620 10620 10621 10621 10620 10619 10618 10617 10615 10612 10610 10608 10605 10601 10599 10598 10596 10594 10592 10590 10588 10585 10583 10579 10576 10573 10570 10567 10565 10562 10558 10554 10550 10546 10542 10537 10533 10528 10523 10517 10511 10505 10499 10492 10486 10479 10472 10465 10459 10452 10446 10440 10434 10429 10423 10417 10411 10405 10399 10392 10386 10379 10372 10366 10361 10357 10351 10346 10341 10334 10326 10317 10309 10302 10295 10289 10286 10285 10286 10283
10619 10619 10619 10618 10617 10615 10615 10615 10615 10615 10614 10613 10611 10609 10607 10606 10605 10601 10596 10593 10592 10591 10589 10587 10584 10582 10580 10577 10574 10571 10568 10565 10562 10559 10556 10552 10548 10544 10540 10536 10531 10526 10522 10516 10511 10505 10499 10492 10485 10478 10471 10465 10458 10451 10444 10438 10432 10427 10421 10415 10409 10402 10395 10389 10383 10378 10372 10367 10360 10355 10350 10346 10341 10335 10329 10323 10315 10307 10299 10291 10284 10280 10280 10280 10278
10614 10614 10614 10614 10613 10611 10610 10609 10609 10609 10608 10607 10606 10604 10602 10600 10600 10597 10593 10590 10588 10586 10584 10582 10579 10577 10574 10571 10568 10565 10562 10559 10556 10553 10550 10547 10543 10539 10535 10530 10525 10520 10516 10510 10504 10498 10492 10486 10479 10472 10465 10458 10451 10445 10438 10431 10425 10419 10413 10407 10401 10395 10389 10382 10376 10369 10364 10359 10354 10349 10343 10338 10334 10330 10324 10318 10312 10305 10297 10289 10282 10277 10275 10275 10273
10609 10609 10609 10609 10608 10607 10607 10605 10604 10603 10602 10602 10600 10598 10596 10594 10593 10591 10588 10585 10583 10581 10579 10576 10574 10571 10569 10566 10563 10560 10557 10554 10550 10548 10544 10541 10537 10534 10529 10524 10520 10515 10509 10503 10498 10492 10486 10479 10473 10466 10459 10452 10445 10439 10432 10425 10418 10412 10406 10401 10394 10389 10383 10377 10371 10364 10358 10353 10348 10344 10338 10332 10327 10322 10318 10313 10307 10300 10292 10284 10278 10273 10270 10268 10265
10603 10604 10604 10604 10603 10603 10602 10601 10600 10599 10597 10596 10594 10591 10589 10589 10587 10584 10582 10579 10578 10576 10574 10571 10569 10566 10564 10561 10558 10555 10551 10548 10545 10542 10538 10535 10532 10528 10523 10518 10514 10508 10503 10497 10491 10486 10479 10473 10467 10460 10454 10447 10440 10434 10426 10420 10413 10407 10400 10394 10388 10382 10376 10371 10365 10359 10353 10348 10342 10337 10332 10325 10319 10314 10310 10307 10303 10296 10288 10279 10272 10268 10264 10261 10257
10598 10598 10598 10598 10598 10597 10596 10595 10595 10593 10592 10591 10589 10586 10584 10583 10581 10578 10576 10574 10573 10570 10568 10566 10563 10561 10558 10555 10552 10549 10545 10542 10539 10536 10532 10528 10525 10521 10516 10511 10507 10501 10496 10491 10485 10480 10473 10467 10461 10455 10448 10442 10435 10429 10422 10416 10409 10402 10395 10389 10383 10377 10371 10364 10358 10352 10346 10340 10335 10330 10325 10319 10312 10307 10302 10300 10297 10293 10286 10278 10271 10265 10261 10257 10251
10593 10593 10593 10593 10592 10590 10589 10589 10588 10588 10586 10585 10584 10582 10579 10577 10574 10572 10570 10569 10567 10564 10562 10560 10558 10555 10552 10550 10547 10543 10539 10536 10533 10530 10526 10522 10518 10513 10509 10505 10500 10495 10490 10485 10479 10473 10467 10461 10455 10449 10443 10437 10430 10424 10418 10412 10405 10398 10391 10385 10379 10373 10368 10361 10353 10346 10340 10334 10328 10324 10319 10314 10308 10302 10297 10293 10289 10287 10283 10277 10270 10264 10258 10255 10250
10588 10588 10587 10587 10586 10585 10584 10583 10582 10581 10581 10580 10578 10576 10574 10571 10569 10567 10565 10563 10561 10559 10557 10554 10552 10549 10546 10543 10540 10537 10534 10531 10527 10523 10519 10515 10511 10507 10503 10498 10494 10489 10484 10479 10473 10467 10461 10455 10449 10444 10438 10432 10425 10419 10413 10407 10401 10395 10388 10382 10376 10370 10365 10360 10353 10346 10339 10333 10327 10322 10317 10312 10306 10299 10293 10288 10283 10280 10277 10274 10269 10263 10257 10252 10249
10582 10582 10582 10581 10581 10580 10579 10577 10576 10575 10575 10574 10572 10570 10568 10566 10564 10561 10559 10557 10555 10553 10551 10548 10546 10543 10540 10537 10534 10531 10528 10525 10522 10518 10514 10510 10505 10501 10497 10492 10488 10483 10478 10473 10467 10461 10455 10449 10443 10438 10432 10426 10420 10415 10409 10403 10397 10391 10385 10380 10374 10368 10363 10357 10351 10345 10339 10333 10327 10321 10316 10311 10305 10298 10291 10286 10280 10276 10272 10270 10266 10262 10256 10250 10245
10576 10576 10576 10575 10574 10574 10573 10571 10570 10569 10568 10567 10565 10564 10562 10560 10558 10555 10553 10551 10549 10547 10545 10543 10540 10537 10534 10531 10528 10525 10522 10519 10516 10512 10508 10504 10500 10496 10491 10486 10482 10477 10472 10466 10460 10454 10448 10443 10437 10432 10427 10421 10415 10410 10405 10400 10394 10388 10382 10377 10372 10367 10361 10355 10349 10343 10337 10331 10325 10319 10314 10309 10304 10297 10289 10283 10278 10273 10269 10266 10264 10261 10256 10250 10244
10570 10570 10569 10569 10568 10567 10566 10565 10564 10562 10561 10560 10558 10557 10556 10554 10551 10549 10547 10545 10543 10541 10539 10536 10534 10531 10527 10525 10522 10519 10516 10513 10510 10506 10502 10498 10494 10489 10485 10480 10475 10471 10465 10460 10454 10448 10442 10437 10432 10426 10421 10416 10411 10405 10400 10396 10391 10385 10378 10373 10369 10364 10358 10352 10347 10341 10335 10329 10323 10316 10312 10307 10302 10296 10289 10282 10276 10272 10268 10264 10261 10258 10254 10249 10244
10564 10564 10563 10563 10562 10560 10559 10559 10557 10556 10554 10553 10551 10550 10549 10547 10545 10543 10541 10539 10537 10535 10533 10531 10527 10524 10521 10518 10515 10513 10510 10507 10503 10499 10495 10491 10487 10483 10478 10473 10468 10464 10458 10453 10447 10441 10436 10431 10426 10421 10416 10411 10406 10401 10396 10391 10387 10382 10375 10369 10364 10360 10354 10348 10343 10337 10332 10326 10320 10314 10309 10305 10301 10296 10290 10284 10277 10271 10266 10261 10257 10254 10251 10246 10241
10558 10558 10557 10556 10556 10555 10554 10552 10551 10550 10548 10546 10545 10544 10543 10540 10539 10537 10535 10533 10531 10529 10527 10524 10521 10518 10515 10512 10509 10506 10504 10501 10497 10492 10488 10484 10479 10475 10470 10466 10461 10456 10451 10446 10440 10434 10429 10425 10420 10416 10411 10407 10402 10397 10392 10387 10383 10378 10372 10366 10360 10356 10351 10345 10339 10334 10329 10324 10318 10312 10306 10302 10299 10295 10290 10285 10278 10270 10263 10258 10253 10250 10247 10244 10241
10552 10552 10551 10550 10549 10549 10548 10546 10545 10543 10542 10541 10539 10538 10537 10535 10532 10530 10528 10527 10525 10522 10520 10518 10514 10511 10508 10505 10502 10500 10497 10494 10490 10485 10480 10476 10472 10467 10463 10459 10454 10449 10444 10438 10433 10428 10423 10419 10414 10410 10406 10402 10398 10393 10388 10384 10380 10375 10370 10364 10358 10352 10347 10342 10336 10331 10326 10321 10316 10311 10305 10300 10296 10293 10289 10284 10277 10270 10263 10257 10252 10247 10243 10240 10238
10546 10546 10545 10544 10543 10542 10541 10540 10539 10537 10536 10535 10533 10532 10530 10528 10526 10524 10522 10520 10518 10516 10513 10510 10507 10504 10501 10498 10495 10493 10489 10486 10481 10477 10472 10469 10464 10460 10456 10451 10446 10442 10436 10431 10426 10422 10417 10413 10409 10405 10402 10398 10394 10389 10384 10379 10375 10371 10366 10361 10355 10349 10345 10340 10335 10329 10324 10319 10314 10310 10304 10298 10293 10290 10286 10281 10276 10270 10264 10259 10254 10249 10244 10240 10237
10539 10539 10539 10538 10537 10536 10535 10533 10532 10530 10529 10528 10526 10525 10523 10521 10519 10517 10515 10514 10512 10509 10506 10504 10500 10497 10495 10491 10488 10486 10482 10478 10473 10469 10465 10461 10457 10453 10448 10444 10439 10434 10429 10424 10420 10415 10411 10407 10404 10400 10397 10393 10389 10385 10380 10374 10370 10366 10362 10357 10351 10346 10342 10338 10334 10329 10324 10318 10314 10309 10303 10296 10291 10286 10283 10280 10276 10271 10265 10260 10255 10251 10247 10242 10238
10533 10532 10532 10531 10530 10529 10528 10527 10525 10523 10522 10521 10519 10518 10516 10514 10512 10510 10508 10506 10504 10502 10500 10497 10493 10490 10487 10484 10481 10478 10474 10470 10466 10462 10458 10454 10450 10445 10441 10436 10432 10427 10422 10418 10414 10410 10406 10402 10398 10395 10392 10389 10385 10381 10375 10370 10367 10363 10358 10353 10348 10343 10339 10335 10331 10326 10321 10316 10311 10306 10300 10294 10288 10284 10280 10277 10275 10271 10265 10260 10256 10252 10249 10245 10241
10526 10525 10525 10524 10524 10523 10522 10520 10519 10517 10515 10513 10512 10511 10509 10507 10505 10503 10501 10499 10497 10495 10493 10490 10486 10483 10480 10477 10474 10471 10466 10462 10458 10454 10450 10446 10442 10437 10433 10429 10424 10420 10416 10412 10408 10404 10401 10397 10393 10390 10387 10384 10380 10376 10371 10366 10362 10359 10355 10350 10345 10340 10336 10331 10327 10322 10318 10312 10308 10303 10299 10293 10287 10282 10278 10275 10272 10269 10266 10262 10257 10252 10249 10246 10243
10519 10518 10518 10517 10517 10516 10515 10513 10512 10510 10508 10506 10505 10503 10502 10500 10498 10496 10494 10492 10490 10488 10485 10482 10479 10475 10471 10469 10466 10462 10458 10454 10450 10446 10442 10438 10434 10429 10425 10421 10417 10413 10410 10406 10402 10399 10396 10392 10388 10385 10382 10379 10375 10371 10366 10361 10357 10354 10350 10346 10342 10337 10332 10328 10324 10319 10314 10310 10305 10301 10297 10293 10287 10282 10278 10274 10271 10268 10265 10262 10258 10254 10250 10247 10244
10511 10511 10511 10511 10510 10510 10508 10507 10505 10503 10501 10499 10498 10496 10495 10493 10491 10490 10487 10485 10482 10480 10477 10475 10471 10466 10463 10461 10458 10454 10450 10446 10442 10438 10434 10430 10426 10421 10418 10414 10411 10407 10404 10400 10397 10394 10391 10388 10384 10381 10378 10374 10370 10366 10361 10357 10353 10349 10345 10342 10338 10334 10329 10325 10320 10316 10311 10307 10302 10298 10295 10291 10287 10282 10278 10274 10271 10267 10264 10261 10258 10255 10251 10248 10245
10504 10504 10504 10504 10504 10503 10502 10500 10498 10496 10494 10493 10491 10490 10488 10485 10484 10482 10480 10477 10475 10472 10469 10467 10463 10459 10455 10452 10449 10445 10441 10437 10433 10429 10426 10422 10418 10414 10411 10408 10404 10401 10398 10395 10392 10389 10386 10383 10380 10376 10373 10369 10365 10361 10357 10353 10349 10345 10341 10337 10334 10331 10326 10322 10318 10314 10310 10305 10301 10297 10293 10290 10287 10282 10278 10274 10271 10267 10263 10260 10258 10255 10252 10249 10246
10497 10497 10497 10497 10497 10496 10495 10493 10491 10489 10487 10485 10484 10482 10480 10478 10476 10475 10472 10469 10467 10464 10461 10458 10455 10451 10447 10443 10439 10436 10432 10427 10424 10421 10418 10414 10411 10408 10405 10402 10398 10395 10392 10389 10387 10384 10381 10378 10374 10371 10367 10364 10361 10357 10353 10349 10345 10341 10338 10334 10331 10328 10323 10319 10315 10312 10309 10305 10300 10296 10292 10289 10285 10281 10277 10273 10270 10267 10264 10261 10258 10255 10252 10249 10247
10490 10490 10490 10490 10490 10489 10488 10486 10484 10482 10479 10478 10476 10474 10472 10470 10468 10466 10464 10461 10458 10455 10452 10449 10446 10442 10438 10434 10431 10427 10423 10419 10416 10413 10410 10407 10404 10401 10399 10395 10393 10390 10387 10384 10382 10379 10376 10373 10370 10366 10363 10359 10356 10352 10348 10344 10341 10337 10334 10332 10329 10325 10321 10317 10313 10310 10307 10303 10299 10294 10290 10287 10284 10281 10277 10272 10269 10267 10264 10261 10258 10255 10252 10250 10248
10483 10483 10484 10484 10483 10482 10481 10478 10476 10474 10472 10470 10468 10466 10464 10462 10460 10458 10455 10452 10449 10446 10443 10440 10436 10433 10429 10426 10422 10419 10415 10411 10408 10406 10403 10400 10398 10395 10393 10390 10387 10385 10382 10379 10377 10374 10371 10368 10365 10361 10358 10355 10351 10348 10344 10340 10337 10334 10331 10328 10326 10323 10319 10315 10312 10309 10305 10302 10297 10293 10289 10285 10282 10280 10277 10273 10269 10266 10264 10261 10259 10256 10253 10251 10249
10476 10476 10477 10476 10476 10475 10473 10471 10468 10466 10464 10462 10460 10457 10456 10454 10452 10449 10446 10442 10440 10437 10434 10431 10427 10423 10420 10417 10414 10411 10407 10404 10401 10398 10396 10394 10392 10389 10387 10385 10382 10379 10377 10374 10371 10369 10366 10363 10360 10357 10354 10351 10347 10344 10340 10336 10333 10330 10327 10325 10322 10320 10316 10313 10310 10306 10303 10300 10296 10292 10288 10284 10280 10278 10276 10273 10269 10266 10264 10261 10259 10257 10254 10252 10250
10469 10469 10469 10469 10469 10467 10465 10462 10460 10458 10456 10454 10451 10449 10447 10445 10443 10440 10437 10434 10431 10429 10426 10422 10418 10415 10412 10409 10407 10403 10400 10396 10394 10392 10390 10388 10385 10383 10381 10379 10377 10374 10372 10369 10366 10364 10361 10358 10355 10352 10349 10346 10343 10339 10336 10333 10329 10326 10324 10321 10319 10316 10314 10311 10308 10304 10301 10298 10294 10290 10287 10283 10280 10277 10275 10272 10269 10266 10262 10260 10258 10256 10254 10252 10250
10461 10461 10461 10461 10461 10459 10457 10455 10453 10450 10448 10446 10443 10441 10439 10437 10435 10431 10428 10425 10423 10420 10416 10413 10410 10408 10406 10403 10400 10396 10393 10390 10388 10386 10384 10382 10379 10377 10376 10374 10371 10369 10367 10364 10361 10358 10356 10353 10350 10347 10344 10341 10338 10335 10332 10328 10325 10322 10320 10318 10316 10313 10311 10308 10305 10302 10299 10296 10292 10289 10285 10282 10279 10276 10274 10271 10269 10266 10263 10260 10257 10255 10253 10251 10249
10454 10454 10454 10453 10452 10450 10448 10447 10445 10442 10440 10437 10435 10432 10430 10428 10426 10422 10419 10417 10414 10410 10407 10404 10402 10400 10399 10396 10393 10390 10387 10385 10382 10381 10378 10376 10373 10372 10370 10368 10366 10364 10361 10359 10356 10353 10350 10348 10345 10342 10339 10336 10333 10330 10327 10324 10321 10319 10316 10314 10312 10310 10307 10305 10302 10300 10297 10294 10291 10287 10284 10281 10278 10276 10273 10270 10268 10266 10264 10260 10257 10255 10253 10251 10249
10446 10446 10446 10445 10443 10442 10440 10438 10436 10434 10432 10429 10427 10424 10421 10418 10415 10412 10410 10407 10405 10402 10399 10397 10394 10393 10391 10389 10386 10383 10380 10378 10376 10374 10372 10370 10368 10366 10365 10362 10360 10358 10356 10353 10351 10348 10345 10343 10340 10337 10334 10332 10329 10326 10323 10320 10318 10315 10313 10310 10308 10306 10304 10302 10299 10297 10294 10292 10288 10285 10282 10279 10276 10274 10272 10269 10267 10265 10263 10261 10258 10255 10252 10251 10249
10438 10437 10437 10436 10435 10433 10431 10430 10428 10425 10423 10421 10419 10415 10411 10408 10405 10402 10399 10397 10395 10393 10390 10388 10387 10386 10385 10382 10379 10376 10374 10371 10370 10369 10367 10365 10363 10361 10359 10357 10355 10352 10350 10348 10346 10343 10340 10338 10335 10332 10330 10327 10325 10322 10319 10316 10314 10312 10309 10306 10304 10302 10300 10298 10296 10293 10291 10289 10286 10283 10280 10277 10275 10272 10270 10267 10265 10264 10262 10260 10258 10255 10252 10250 10248
10430 10429 10429 10428 10426 10424 10423 10421 10419 10417 10414 10412 10409 10406 10402 10399 10396 10393 10391 10388 10386 10383 10381 10380 10379 10379 10378 10375 10372 10370 10367 10366 10365 10364 10362 10360 10358 10355 10353 10351 10349 10347 10345 10342 10340 10338 10335 10333 10330 10328 10326 10323 10321 10318 10315 10313 10310 10308 10305 10303 10300 10298 10296 10294 10292 10290 10287 10285 10283 10281 10278 10276 10273 10271 10268 10266 10264 10262 10260 10259 10257 10255 10252 10249 10247
10421 10420 10420 10418 10415 10413 10412 10411 10410 10408 10405 10402 10399 10395 10392 10389 10387 10384 10382 10380 10378 10376 10374 10372 10372 10371 10370 10368 10366 10364 10362 10360 10359 10358 10356 10354 10352 10349 10347 10345 10343 10341 10339 10337 10335 10332 10330 10328 10326 10324 10321 10319 10317 10314 10311 10309 10307 10304 10302 10299 10296 10294 10292 10290 10288 10286 10283 10281 10279 10278 10276 10274 10272 10269 10267 10264 10262 10260 10258 10257 10255 10254 10252 10249 10246
10411 10411 10411 10409 10405 10402 10401 10400 10399 10397 10395 10392 10388 10385 10382 10380 10378 10376 10374 10372 10370 10369 10367 10365 10364 10363 10362 10361 10359 10357 10355 10354 10353 10351 10350 10348 10346 10343 10341 10339 10337 10335 10333 10331 10329 10327 10325 10323 10321 10319 10317 10315 10313 10310 10308 10305 10303 10300 10298 10295 10293 10291 10288 10287 10285 10282 10280 10278 10276 10275 10274 10272 10270 10267 10264 10262 10260 10258 10256 10254 10253 10252 10251 10248 10246
10400 10400 10400 10399 10396 10393 10390 10389 10389 10387 10385 10382 10379 10376 10374 10371 10369 10367 10366 10364 10363 10361 10359 10358 10357 10356 10355 10353 10351 10349 10348 10347 10346 10344 10343 10341 10339 10337 10335 10333 10331 10329 10327 10325 10324 10322 10320 10318 10316 10314 10312 10310 10308 10306 10304 10301 10299 10297 10294 10292 10290 10288 10285 10283 10281 10279 10277 10275 10273 10272 10271 10270 10268 10265 10262 10260 10258 10256 10254 10252 10251 10250 10248 10247 10245
10390 10390 10389 10388 10386 10384 10381 10380 10379 10378 10375 10373 10370 10367 10365 10363 10361 10359 10358 10357 10355 10354 10352 10351 10350 10349 10348 10346 10344 10342 10341 10340 10339 10337 10336 10334 10332 10331 10329 10327 10325 10323 10321 10320 10318 10316 10314 10313 10311 10309 10307 10306 10304 10302 10299 10297 10295 10293 10291 10289 10287 10285 10283 10281 10279 10276 10274 10271 10269 10268 10267 10266 10265 10262 10259 10257 10256 10254 10251 10250 10248 10247 10246 10245 10243
10381 10380 10379 10377 10375 10373 10372 10370 10369 10368 10366 10363 10360 10358 10356 10354 10352 10351 10350 10349 10348 10346 10345 10344 10343 10342 10340 10339 10337 10336 10334 10334 10332 10331 10329 10328 10326 10325 10323 10321 10319 10318 10316 10315 10313 10311 10309 10307 10305 10304 10302 10301 10299 10297 10295 10293 10291 10289 10287 10285 10283 10281 10279 10277 10275 10272 10270 10268 10266 10264 10263 10262 10261 10259 10256 10254 10253 10251 10249 10247 10245 10244 10243 10242 10241
10372 10371 10369 10367 10365 10363 10362 10361 10359 10358 10356 10354 10351 10349 10347 10346 10344 10343 10342 10340 10339 10338 10337 10336 10335 10334 10333 10332 10330 10329 10328 10327 10326 10324 10322 10321 10320 10319 10317 10316 10314 10312 10311 10309 10308 10306 10304 10302 10300 10299 10297 10296 10294 10292 10290 10288 10287 10285 10283 10281 10279 10278 10276 10273 10271 10268 10266 10264 10262 10261 10259 10257 10256 10255 10253 10251 10249 10248 10246 10244 10242 10241 10240 10239 10238
10364 10362 10360 10358 10356 10355 10353 10352 10350 10349 10347 10345 10343 10340 10339 10337 10336 10335 10334 10332 10331 10330 10329 10328 10327 10326 10326 10325 10323 10322 10322 10320 10319 10317 10316 10315 10314 10313 10312 10310 10308 10307 10305 10303 10302 10300 10298 10297 10295 10294 10292 10291 10289 10287 10285 10284 10282 10280 10279 10277 10275 10274 10272 10269 10267 10264 10262 10260 10258 10257 10255 10253 10252 10250 10249 10247 10245 10244 10243 10241 10240 10238 10237 10236 10235
10355 10353 10351 10350 10348 10346 10345 10343 10341 10340 10338 10336 10335 10332 10330 10329 10328 10327 10326 10325 10323 10322 10321 10321 10320 10319 10318 10317 10316 10316 10315 10314 10312 10311 10310 10309 10308 10307 10306 10304 10302 10301 10299 10297 10296 10294 10293 10291 10290 10289 10287 10286 10284 10282 10280 10279 10277 10275 10274 10272 10271 10269 10268 10265 10263 10260 10258 10256 10254 10252 10251 10249 10247 10246 10245 10243 10241 10240 10239 10238 10236 10235 10234 10233 10232
10346 10344 10343 10341 10339 10338 10336 10335 10333 10331 10329 10328 10326 10324 10322 10320 10319 10319 10318 10317 10316 10315 10314 10314 10313 10312 10311 10310 10309 10309 10308 10307 10306 10305 10304 10303 10303 10301 10300 10298 10296 10295 10293 10291 10290 10289 10288 10286 10285 10283 10282 10280 10279 10277 10275 10274 10272 10270 10269 10267 10265 10264 10263 10261 10258 10256 10254 10251 10249 10247 10246 10244 10242 10241 10240 10239 10237 10236 10235 10234 10233 10232 10231 10230 10229